Overview Statistics Trail Chart Weather Telemetry Raw packets
 

This is the latest recevied weather packets stored in our database for station/object W1MDM-10. If no packets are shown the sender has not sent any weather packets the latest 10 day(s).

<< 52 53 54 55 56 57 58 >>
Time Temp. Humidity Pressure Rain* Wind** Luminosity Snow
1787977544 23.33° C 98% 1016 hPa 0 mm - - -
1787977244 23.33° C 98% 1015.9 hPa 0 mm - - -
1787976944 23.33° C 98% 1016 hPa 0 mm - - -
1787976644 23.33° C 98% 1016.1 hPa 0 mm - - -
1787976344 23.33° C 98% 1016.1 hPa 0 mm - - -
1787976044 23.33° C 98% 1016.1 hPa 0 mm - - -
1787975744 23.33° C 98% 1016 hPa 0 mm - - -
1787975444 23.33° C 98% 1016.1 hPa 0 mm - - -
1787975144 23.33° C 98% 1016.2 hPa 0 mm - - -
1787974844 23.33° C 97% 1016.3 hPa 0 mm - - -
1787974544 23.33° C 97% 1016.2 hPa 0 mm - - -
1787974244 23.33° C 97% 1016.2 hPa 0 mm - - -
1787973944 23.33° C 97% 1016.1 hPa 0 mm - - -
1787973644 23.33° C 97% 1015.9 hPa 0 mm - - -
1787973344 23.33° C 97% 1016 hPa 0.25 mm - - -
1787973044 23.33° C 97% 1016.2 hPa 0.25 mm - - -
1787972744 23.33° C 97% 1016.1 hPa 0.76 mm - - -
1787972444 22.78° C 97% 1016.2 hPa 1.52 mm - - -
1787972144 22.78° C 97% 1016 hPa 2.29 mm - - -
1787971844 22.78° C 97% 1015.6 hPa 5.59 mm - - -
1787971544 22.78° C 97% 1015.5 hPa 13.21 mm - - -
1787971244 22.78° C 97% 1015.5 hPa 17.02 mm - - -
1787970944 22.78° C 97% 1015.6 hPa 18.54 mm - - -
1787970644 22.78° C 97% 1015.7 hPa 23.11 mm - - -
1787970344 22.78° C 97% 1015.8 hPa 25.65 mm - - -

* Rain latest hour (hover to see other rain measurements)
** Current wind speed in m/s (hover to see current wind gust speed)